Faith, SD

12:47 AM MDT on August 24, 2016 (GMT -0600)
Faith

Weather History for KD07 - December, 2012

Change the Weather History Date:

Thursday, December 20, 2012

  Actual Average Record
Temperature  
Mean Temperature 15 °F 20 °F  
Max Temperature 24 °F 30 °F 54 °F (2003)
Min Temperature 5 °F 11 °F -11 °F (2013)
Degree Days  
Heating Degree Days 50 45  
Month to date heating degree days 681 868  
Since 1 July heating degree days 2315 2651  
Cooling Degree Days 0 0  
Month to date cooling degree days 0 0  
Year to date cooling degree days 971 635  
Moisture  
Dew Point 6 °F    
Average Humidity 68    
Maximum Humidity 80    
Minimum Humidity 55    
Precipitation  
Precipitation 0.00 in 0.01 in 0.13 in (2010)
Month to date precipitation 100.16 0.24  
Year to date precipitation 112.73 17.50  
Sea Level Pressure  
Sea Level Pressure 30.22 in    
Wind  
Wind Speed 7 mph (SW)    
Max Wind Speed 16 mph    
Max Gust Speed 17 mph    
T = Trace of Precipitation, MM = Missing Value Source: NWS Daily Summary

Daily Weather History Graph

Daily Weather History Graph

Search for Another Location

Airport or City:

Trip Planner

Search our weather history database for the weather conditions in past years. The results will help you decide how hot, cold, wet, or windy it might be!

Date:

Astronomy

Dec. 20, 2012 Rise Set
Actual Time 7:23 AM MST 4:08 PM MST
Civil Twilight 6:49 AM MST 4:42 PM MST
Nautical Twilight 6:11 AM MST 5:20 PM MST
Astronomical Twilight 5:36 AM MST 5:55 PM MST
Moon 11:40 AM MST (12/20) No Moon Set
Length of Visible Light 9h 53m
Length of Day
8h 45m
First Quarter, 56% of the Moon is Illuminated
Dec 20
First Quarter
Dec 28
Full
Jan 4
Last Quarter
Jan 11
New
Jan 18
First Quarter

Hourly Weather History & Observations

Time (MST) Temp. Windchill Dew Point Humidity Pressure Visibility Wind Dir Wind Speed Gust Speed Precip Events Conditions
12:56 AM 8.1 °F -0.5 °F 3.0 °F 80% 30.23 in - West 4.6 mph - N/A   Unknown
1:56 AM 10.0 °F 1.8 °F 3.0 °F 73% 30.23 in - WNW 4.6 mph - N/A   Unknown
3:56 AM 9.0 °F -2.2 °F 1.0 °F 70% 30.23 in - WSW 6.9 mph - N/A   Unknown
4:56 AM 9.0 °F -2.2 °F -0.0 °F 67% 30.23 in - West 6.9 mph - N/A   Unknown
5:56 AM 9.0 °F 0.6 °F -0.0 °F 67% 30.24 in - West 4.6 mph - N/A   Unknown
6:56 AM 9.0 °F -2.2 °F -0.9 °F 64% 30.26 in - WNW 6.9 mph - N/A   Unknown
7:56 AM 12.0 °F 0.5 °F 1.0 °F 61% 30.24 in - West 8.1 mph - N/A   Unknown
8:56 AM 14.0 °F 8.2 °F 3.0 °F 62% 30.26 in - WSW 3.5 mph - N/A   Unknown
9:56 AM 12.0 °F 5.9 °F 5.0 °F 73% 30.26 in - SSW 3.5 mph - N/A   Unknown
10:56 AM 12.9 °F 2.6 °F 5.0 °F 71% 30.26 in - SSW 6.9 mph - N/A   Unknown
11:56 AM 19.0 °F 10.0 °F 9.0 °F 65% 30.22 in - South 6.9 mph - N/A   Unknown
12:56 PM 24.1 °F 17.0 °F 10.9 °F 57% 30.19 in - WSW 5.8 mph - N/A   Unknown
1:56 PM 21.9 °F 11.7 °F 12.0 °F 66% 30.18 in - SSW 9.2 mph - N/A   Unknown
2:56 PM 21.0 °F 12.4 °F 12.0 °F 68% 30.20 in - SSW 6.9 mph - N/A   Unknown
3:56 PM 19.0 °F 10.0 °F 10.0 °F 68% 30.21 in - SW 6.9 mph - N/A   Unknown
4:56 PM 19.0 °F 12.3 °F 9.0 °F 65% 30.19 in - SW 4.6 mph - N/A   Unknown
5:56 PM 21.0 °F 14.6 °F 9.0 °F 60% 30.21 in - WSW 4.6 mph - N/A   Unknown
6:56 PM - - - N/A% - - North - - N/A   Unknown
7:56 PM 16.0 °F 8.8 °F 7.0 °F 68% 30.22 in - SSW 4.6 mph - N/A   Unknown
8:56 PM 10.9 °F -2.6 °F 3.9 °F 73% 30.23 in - South 10.4 mph - N/A   Unknown
9:56 PM 14.0 °F 2.0 °F 6.1 °F 71% 30.23 in - SSW 9.2 mph - N/A   Unknown
10:56 PM 16.0 °F - 8.1 °F 71% 30.22 in - North - - N/A   Unknown
11:56 PM 17.1 °F 3.0 °F 9.0 °F 71% 30.20 in - SSE 13.8 mph - N/A   Unknown